Time,TemperatureF,DewpointF,PressureIn,WindDirection,WindDirectionDegrees,WindSpeedMPH,WindSpeedGustMPH,Humidity,HourlyPrecipIn,Conditions,Clouds,dailyrainin,SoftwareType,DateUTC
2013-08-02 00:01:00,62.7,58.1,29.93,NNW,340,0.0,0.0,85,0.00,,,0.00,vanprod-2.3,2013-08-02 05:01:00,
2013-08-02 00:06:00,62.6,58.0,29.92,NNW,340,0.0,0.0,85,0.00,,,0.00,vanprod-2.3,2013-08-02 05:06:00,
2013-08-02 00:11:00,62.4,58.2,29.92,NNW,340,0.0,0.0,86,0.00,,,0.00,vanprod-2.3,2013-08-02 05:11:00,
2013-08-02 00:16:00,62.4,57.8,29.92,NNW,340,0.0,0.0,85,0.00,,,0.00,vanprod-2.3,2013-08-02 05:16:00,
2013-08-02 00:21:00,62.2,58.0,29.91,NNW,340,0.0,0.0,86,0.00,,,0.00,vanprod-2.3,2013-08-02 05:21:00,
2013-08-02 00:26:00,62.1,57.9,29.91,NNW,340,0.0,0.0,86,0.00,,,0.00,vanprod-2.3,2013-08-02 05:26:00,
2013-08-02 00:31:00,61.9,58.0,29.91,NNW,340,0.0,0.0,87,0.00,,,0.00,vanprod-2.3,2013-08-02 05:31:00,
2013-08-02 00:36:00,61.8,57.9,29.91,NNW,340,0.0,0.0,87,0.00,,,0.00,vanprod-2.3,2013-08-02 05:36:00,
2013-08-02 00:41:00,61.6,57.4,29.91,NNW,340,0.0,0.0,86,0.00,,,0.00,vanprod-2.3,2013-08-02 05:41:00,
2013-08-02 00:46:00,61.6,57.7,29.91,NNW,340,0.0,0.0,87,0.00,,,0.00,vanprod-2.3,2013-08-02 05:46:00,
2013-08-02 00:51:00,61.5,57.9,29.91,NNW,340,0.0,0.0,88,0.00,,,0.00,vanprod-2.3,2013-08-02 05:51:00,
2013-08-02 00:56:00,61.3,57.7,29.91,NNW,340,0.0,0.0,88,0.00,,,0.00,vanprod-2.3,2013-08-02 05:56:00,
2013-08-02 01:01:00,61.1,57.5,29.91,NNW,340,0.0,0.0,88,0.00,,,0.00,vanprod-2.3,2013-08-02 06:01:00,
2013-08-02 01:06:00,61.1,57.8,29.92,NNW,340,0.0,0.0,89,0.00,,,0.00,vanprod-2.3,2013-08-02 06:06:00,
2013-08-02 01:11:00,61.1,58.1,29.92,NNW,340,0.0,0.0,90,0.00,,,0.00,vanprod-2.3,2013-08-02 06:11:00,
2013-08-02 01:16:00,61.0,58.1,29.92,NNW,340,0.0,0.0,90,0.00,,,0.00,vanprod-2.3,2013-08-02 06:16:00,
2013-08-02 01:21:00,60.8,58.2,29.92,NNW,340,0.0,0.0,91,0.00,,,0.00,vanprod-2.3,2013-08-02 06:21:00,
2013-08-02 01:26:00,60.8,58.2,29.92,NNW,340,0.0,0.0,91,0.00,,,0.00,vanprod-2.3,2013-08-02 06:26:00,
2013-08-02 01:31:00,60.7,57.8,29.92,NNW,340,0.0,0.0,90,0.00,,,0.00,vanprod-2.3,2013-08-02 06:31:00,
2013-08-02 01:36:00,60.7,57.8,29.93,NNW,340,0.0,0.0,90,0.00,,,0.00,vanprod-2.3,2013-08-02 06:36:00,
2013-08-02 01:41:00,60.7,57.8,29.93,NNW,340,1.0,0.0,90,0.00,,,0.00,vanprod-2.3,2013-08-02 06:41:00,
2013-08-02 01:46:00,60.5,57.2,29.93,NNW,340,0.0,0.0,89,0.00,,,0.00,vanprod-2.3,2013-08-02 06:46:00,
2013-08-02 01:51:00,60.4,56.8,29.93,NNW,340,0.0,0.0,88,0.00,,,0.00,vanprod-2.3,2013-08-02 06:51:00,
2013-08-02 01:56:00,60.4,56.5,29.93,NNW,340,0.0,0.0,87,0.00,,,0.00,vanprod-2.3,2013-08-02 06:56:00,
2013-08-02 02:01:00,60.4,56.2,29.93,NNW,340,0.0,0.0,86,0.00,,,0.00,vanprod-2.3,2013-08-02 07:01:00,
2013-08-02 02:06:00,60.4,56.2,29.93,NNW,340,0.0,0.0,86,0.00,,,0.00,vanprod-2.3,2013-08-02 07:06:00,
2013-08-02 02:11:00,60.2,56.3,29.93,NNW,340,0.0,0.0,87,0.00,,,0.00,vanprod-2.3,2013-08-02 07:11:00,
2013-08-02 02:16:00,60.2,56.3,29.93,NNW,340,0.0,0.0,87,0.00,,,0.00,vanprod-2.3,2013-08-02 07:16:00,
2013-08-02 02:21:00,60.0,56.1,29.93,NNW,340,0.0,0.0,87,0.00,,,0.00,vanprod-2.3,2013-08-02 07:21:00,
2013-08-02 02:26:00,60.0,56.4,29.93,NNW,340,0.0,0.0,88,0.00,,,0.00,vanprod-2.3,2013-08-02 07:26:00,
2013-08-02 02:31:00,59.9,56.3,29.93,NNW,340,0.0,0.0,88,0.00,,,0.00,vanprod-2.3,2013-08-02 07:31:00,
2013-08-02 02:36:00,59.9,56.7,29.93,NNW,340,0.0,0.0,89,0.00,,,0.00,vanprod-2.3,2013-08-02 07:36:00,
2013-08-02 02:41:00,59.7,56.5,29.93,NNW,340,0.0,0.0,89,0.00,,,0.00,vanprod-2.3,2013-08-02 07:41:00,
2013-08-02 02:46:00,59.6,56.4,29.93,NNW,340,0.0,0.0,89,0.00,,,0.00,vanprod-2.3,2013-08-02 07:46:00,
2013-08-02 02:51:00,59.4,56.2,29.93,NNW,340,0.0,0.0,89,0.00,,,0.00,vanprod-2.3,2013-08-02 07:51:00,
2013-08-02 02:56:00,59.3,56.4,29.93,NNW,340,0.0,0.0,90,0.00,,,0.00,vanprod-2.3,2013-08-02 07:56:00,
2013-08-02 03:01:00,59.1,56.2,29.93,NNW,340,0.0,0.0,90,0.00,,,0.00,vanprod-2.3,2013-08-02 08:01:00,
2013-08-02 03:06:00,59.0,56.4,29.93,NNW,340,0.0,0.0,91,0.00,,,0.00,vanprod-2.3,2013-08-02 08:06:00,
2013-08-02 03:11:00,58.8,56.2,29.93,NNW,340,0.0,0.0,91,0.00,,,0.00,vanprod-2.3,2013-08-02 08:11:00,
2013-08-02 03:16:00,58.8,56.2,29.93,NNW,340,0.0,0.0,91,0.00,,,0.00,vanprod-2.3,2013-08-02 08:16:00,
2013-08-02 03:21:00,58.7,56.1,29.93,NNW,340,0.0,0.0,91,0.00,,,0.00,vanprod-2.3,2013-08-02 08:21:00,
2013-08-02 03:26:00,58.5,55.9,29.93,NNW,340,0.0,0.0,91,0.00,,,0.00,vanprod-2.3,2013-08-02 08:26:00,
2013-08-02 03:31:00,58.4,56.1,29.93,NNW,340,0.0,0.0,92,0.00,,,0.00,vanprod-2.3,2013-08-02 08:31:00,
2013-08-02 03:36:00,58.4,56.1,29.93,NNW,340,0.0,0.0,92,0.00,,,0.00,vanprod-2.3,2013-08-02 08:36:00,
2013-08-02 03:41:00,58.2,55.9,29.93,NNW,340,0.0,0.0,92,0.00,,,0.00,vanprod-2.3,2013-08-02 08:41:00,
2013-08-02 03:46:00,58.2,55.9,29.93,NNW,340,0.0,0.0,92,0.00,,,0.00,vanprod-2.3,2013-08-02 08:46:00,
2013-08-02 03:51:00,58.2,56.2,29.93,NNW,340,0.0,0.0,93,0.00,,,0.00,vanprod-2.3,2013-08-02 08:51:00,
2013-08-02 03:56:00,58.1,56.1,29.93,NNW,340,0.0,0.0,93,0.00,,,0.00,vanprod-2.3,2013-08-02 08:56:00,
2013-08-02 04:01:00,58.2,56.2,29.94,NNW,340,0.0,0.0,93,0.00,,,0.00,vanprod-2.3,2013-08-02 09:01:00,
2013-08-02 04:06:00,58.2,56.2,29.94,NNW,340,0.0,0.0,93,0.00,,,0.00,vanprod-2.3,2013-08-02 09:06:00,
2013-08-02 04:11:00,58.1,56.1,29.94,NNW,340,0.0,0.0,93,0.00,,,0.00,vanprod-2.3,2013-08-02 09:11:00,
2013-08-02 04:16:00,58.1,56.1,29.94,NNW,340,0.0,0.0,93,0.00,,,0.00,vanprod-2.3,2013-08-02 09:16:00,
2013-08-02 04:21:00,57.9,55.9,29.93,NNW,340,0.0,0.0,93,0.00,,,0.00,vanprod-2.3,2013-08-02 09:21:00,
2013-08-02 04:26:00,57.8,55.8,29.93,NNW,340,0.0,0.0,93,0.00,,,0.00,vanprod-2.3,2013-08-02 09:26:00,
2013-08-02 04:31:00,57.8,56.1,29.93,NNW,340,0.0,0.0,94,0.00,,,0.00,vanprod-2.3,2013-08-02 09:31:00,
2013-08-02 04:36:00,57.6,55.9,29.94,NNW,340,0.0,0.0,94,0.00,,,0.00,vanprod-2.3,2013-08-02 09:36:00,
2013-08-02 04:41:00,57.5,55.8,29.94,NNW,340,0.0,0.0,94,0.00,,,0.00,vanprod-2.3,2013-08-02 09:41:00,
2013-08-02 04:46:00,57.5,55.8,29.94,NNW,340,0.0,0.0,94,0.00,,,0.00,vanprod-2.3,2013-08-02 09:46:00,
2013-08-02 04:51:00,57.3,55.6,29.95,NNW,340,0.0,0.0,94,0.00,,,0.00,vanprod-2.3,2013-08-02 09:51:00,
2013-08-02 04:56:00,57.3,55.6,29.94,NNW,340,0.0,0.0,94,0.00,,,0.00,vanprod-2.3,2013-08-02 09:56:00,
2013-08-02 05:01:00,57.1,55.4,29.95,NNW,340,0.0,0.0,94,0.00,,,0.00,vanprod-2.3,2013-08-02 10:01:00,
2013-08-02 05:06:00,57.0,55.3,29.95,NNW,340,0.0,0.0,94,0.00,,,0.00,vanprod-2.3,2013-08-02 10:06:00,
2013-08-02 05:11:00,57.0,55.3,29.95,NNW,340,0.0,0.0,94,0.00,,,0.00,vanprod-2.3,2013-08-02 10:11:00,
2013-08-02 05:16:00,56.8,55.4,29.94,NNW,340,0.0,0.0,95,0.00,,,0.00,vanprod-2.3,2013-08-02 10:16:00,
2013-08-02 05:21:00,56.8,55.4,29.94,NNW,340,0.0,0.0,95,0.00,,,0.00,vanprod-2.3,2013-08-02 10:21:00,
2013-08-02 05:26:00,56.7,55.3,29.94,NNW,340,0.0,0.0,95,0.00,,,0.00,vanprod-2.3,2013-08-02 10:26:00,
2013-08-02 05:31:00,56.5,55.1,29.94,NNW,340,0.0,0.0,95,0.00,,,0.00,vanprod-2.3,2013-08-02 10:31:00,
2013-08-02 05:36:00,56.5,55.1,29.95,NNW,340,0.0,0.0,95,0.00,,,0.00,vanprod-2.3,2013-08-02 10:36:00,
2013-08-02 05:41:00,56.4,55.0,29.95,NNW,340,0.0,0.0,95,0.00,,,0.00,vanprod-2.3,2013-08-02 10:41:00,
2013-08-02 05:46:00,56.4,55.0,29.95,NNW,340,0.0,0.0,95,0.00,,,0.00,vanprod-2.3,2013-08-02 10:46:00,
2013-08-02 05:51:00,56.2,54.8,29.95,NNW,340,0.0,0.0,95,0.00,,,0.00,vanprod-2.3,2013-08-02 10:51:00,
2013-08-02 05:56:00,56.2,54.8,29.95,NNW,340,0.0,0.0,95,0.00,,,0.00,vanprod-2.3,2013-08-02 10:56:00,
2013-08-02 06:01:00,56.1,54.7,29.95,NNW,340,0.0,0.0,95,0.00,,,0.00,vanprod-2.3,2013-08-02 11:01:00,
2013-08-02 06:06:00,56.1,54.7,29.95,NNW,340,0.0,0.0,95,0.00,,,0.00,vanprod-2.3,2013-08-02 11:06:00,
2013-08-02 06:11:00,56.0,54.6,29.95,NNW,340,0.0,0.0,95,0.00,,,0.00,vanprod-2.3,2013-08-02 11:11:00,
2013-08-02 06:16:00,56.0,54.6,29.95,NNW,340,0.0,0.0,95,0.00,,,0.00,vanprod-2.3,2013-08-02 11:16:00,
2013-08-02 06:21:00,56.0,54.6,29.95,NNW,340,0.0,0.0,95,0.00,,,0.00,vanprod-2.3,2013-08-02 11:21:00,
2013-08-02 06:26:00,56.1,54.4,29.95,NNW,340,0.0,0.0,94,0.00,,,0.00,vanprod-2.3,2013-08-02 11:26:00,
2013-08-02 06:31:00,56.4,54.4,29.95,NNW,340,0.0,0.0,93,0.00,,,0.00,vanprod-2.3,2013-08-02 11:31:00,
2013-08-02 06:36:00,56.5,54.2,29.95,NNW,340,0.0,0.0,92,0.00,,,0.00,vanprod-2.3,2013-08-02 11:36:00,
2013-08-02 06:41:00,56.8,54.2,29.95,NNW,340,0.0,0.0,91,0.00,,,0.00,vanprod-2.3,2013-08-02 11:41:00,
2013-08-02 06:47:00,57.0,54.4,29.95,NNW,340,0.0,0.0,91,0.00,,,0.00,vanprod-2.3,2013-08-02 11:47:00,
2013-08-02 06:52:00,57.0,54.4,29.95,NNW,340,0.0,0.0,91,0.00,,,0.00,vanprod-2.3,2013-08-02 11:52:00,
2013-08-02 06:57:00,57.1,54.5,29.95,NNW,340,0.0,0.0,91,0.00,,,0.00,vanprod-2.3,2013-08-02 11:57:00,
2013-08-02 07:02:00,57.3,55.0,29.96,NNW,340,0.0,0.0,92,0.00,,,0.00,vanprod-2.3,2013-08-02 12:02:00,
2013-08-02 07:07:00,57.5,55.2,29.96,NNW,340,0.0,0.0,92,0.00,,,0.00,vanprod-2.3,2013-08-02 12:07:00,
2013-08-02 07:12:00,57.6,55.3,29.96,NNW,340,0.0,0.0,92,0.00,,,0.00,vanprod-2.3,2013-08-02 12:12:00,
2013-08-02 07:17:00,57.8,55.5,29.96,NNW,340,0.0,0.0,92,0.00,,,0.00,vanprod-2.3,2013-08-02 12:17:00,
2013-08-02 07:22:00,57.9,55.3,29.96,NNW,340,0.0,0.0,91,0.00,,,0.00,vanprod-2.3,2013-08-02 12:22:00,
2013-08-02 07:27:00,58.1,55.5,29.96,NNW,340,0.0,0.0,91,0.00,,,0.00,vanprod-2.3,2013-08-02 12:27:00,
2013-08-02 07:32:00,58.4,55.8,29.96,NNW,340,0.0,0.0,91,0.00,,,0.00,vanprod-2.3,2013-08-02 12:32:00,
2013-08-02 07:37:00,58.5,55.6,29.96,NNW,340,0.0,2.0,90,0.00,,,0.00,vanprod-2.3,2013-08-02 12:37:00,
2013-08-02 07:42:00,58.8,54.9,29.96,NNW,340,0.0,1.0,87,0.00,,,0.00,vanprod-2.3,2013-08-02 12:42:00,
2013-08-02 07:47:00,59.4,54.9,29.96,NNE,31,0.0,1.0,85,0.00,,,0.00,vanprod-2.3,2013-08-02 12:47:00,
2013-08-02 07:52:00,59.9,55.1,29.96,NNE,31,0.0,0.0,84,0.00,,,0.00,vanprod-2.3,2013-08-02 12:52:00,
2013-08-02 07:57:00,60.2,55.0,29.96,NNE,31,0.0,3.0,83,0.00,,,0.00,vanprod-2.3,2013-08-02 12:57:00,
2013-08-02 08:02:00,60.7,55.5,29.96,NNE,31,1.0,0.0,83,0.00,,,0.00,vanprod-2.3,2013-08-02 13:02:00,
2013-08-02 08:07:00,60.8,55.6,29.96,NNE,31,0.0,0.0,83,0.00,,,0.00,vanprod-2.3,2013-08-02 13:07:00,
2013-08-02 08:12:00,61.1,55.2,29.97,NNE,31,0.0,0.0,81,0.00,,,0.00,vanprod-2.3,2013-08-02 13:12:00,
2013-08-02 08:17:00,61.3,55.1,29.97,NNE,31,0.0,0.0,80,0.00,,,0.00,vanprod-2.3,2013-08-02 13:17:00,
2013-08-02 08:22:00,61.5,55.3,29.97,NNE,31,0.0,0.0,80,0.00,,,0.00,vanprod-2.3,2013-08-02 13:22:00,
2013-08-02 08:27:00,61.8,55.6,29.97,NNE,31,0.0,0.0,80,0.00,,,0.00,vanprod-2.3,2013-08-02 13:27:00,
2013-08-02 08:32:00,62.1,55.9,29.97,NNE,31,0.0,0.0,80,0.00,,,0.00,vanprod-2.3,2013-08-02 13:32:00,
2013-08-02 08:37:00,62.2,56.3,29.97,NNE,31,0.0,0.0,81,0.00,,,0.00,vanprod-2.3,2013-08-02 13:37:00,
2013-08-02 08:42:00,62.6,56.7,29.97,NNE,31,0.0,0.0,81,0.00,,,0.00,vanprod-2.3,2013-08-02 13:42:00,
2013-08-02 08:47:00,62.7,56.4,29.98,NNE,31,0.0,0.0,80,0.00,,,0.00,vanprod-2.3,2013-08-02 13:47:00,
2013-08-02 08:52:00,62.9,57.0,29.98,NNE,31,0.0,0.0,81,0.00,,,0.00,vanprod-2.3,2013-08-02 13:52:00,
2013-08-02 08:57:00,63.0,57.4,29.98,NNE,31,0.0,0.0,82,0.00,,,0.00,vanprod-2.3,2013-08-02 13:57:00,
2013-08-02 09:02:00,63.2,57.3,29.98,NNE,31,0.0,0.0,81,0.00,,,0.00,vanprod-2.3,2013-08-02 14:02:00,
2013-08-02 09:07:00,63.5,56.9,29.98,NNE,31,0.0,0.0,79,0.00,,,0.00,vanprod-2.3,2013-08-02 14:07:00,
2013-08-02 09:12:00,64.0,57.4,29.98,NNE,31,0.0,1.0,79,0.00,,,0.00,vanprod-2.3,2013-08-02 14:12:00,
2013-08-02 09:17:00,64.5,57.1,29.98,NNE,31,0.0,0.0,77,0.00,,,0.00,vanprod-2.3,2013-08-02 14:17:00,
2013-08-02 09:22:00,64.8,56.7,29.98,NNE,31,0.0,2.0,75,0.00,,,0.00,vanprod-2.3,2013-08-02 14:22:00,
2013-08-02 09:27:00,65.1,57.0,29.98,NNE,31,0.0,1.0,75,0.00,,,0.00,vanprod-2.3,2013-08-02 14:27:00,
2013-08-02 09:32:00,65.1,57.4,29.98,NNE,31,0.0,0.0,76,0.00,,,0.00,vanprod-2.3,2013-08-02 14:32:00,
2013-08-02 09:37:00,65.5,57.7,29.98,NNE,31,0.0,0.0,76,0.00,,,0.00,vanprod-2.3,2013-08-02 14:37:00,
2013-08-02 09:42:00,65.6,57.8,29.98,NNE,31,0.0,2.0,76,0.00,,,0.00,vanprod-2.3,2013-08-02 14:42:00,
2013-08-02 09:47:00,65.8,58.4,29.98,NNE,31,0.0,0.0,77,0.00,,,0.00,vanprod-2.3,2013-08-02 14:47:00,
2013-08-02 09:52:00,65.9,58.5,29.98,NNE,31,0.0,1.0,77,0.00,,,0.00,vanprod-2.3,2013-08-02 14:52:00,
2013-08-02 09:57:00,66.1,58.3,29.97,NNE,31,0.0,0.0,76,0.00,,,0.00,vanprod-2.3,2013-08-02 14:57:00,
2013-08-02 10:02:00,66.1,57.6,29.97,NNE,31,0.0,1.0,74,0.00,,,0.00,vanprod-2.3,2013-08-02 15:02:00,
2013-08-02 10:07:00,66.1,58.0,29.97,NNE,31,0.0,0.0,75,0.00,,,0.00,vanprod-2.3,2013-08-02 15:07:00,
2013-08-02 10:12:00,66.4,57.9,29.98,NNE,31,0.0,0.0,74,0.00,,,0.00,vanprod-2.3,2013-08-02 15:12:00,
2013-08-02 10:17:00,66.8,58.3,29.98,NNE,31,0.0,0.0,74,0.00,,,0.00,vanprod-2.3,2013-08-02 15:17:00,
2013-08-02 10:22:00,67.1,57.4,29.98,NNE,31,0.0,0.0,71,0.00,,,0.00,vanprod-2.3,2013-08-02 15:22:00,
2013-08-02 10:27:00,67.4,58.1,29.98,NNE,31,0.0,0.0,72,0.00,,,0.00,vanprod-2.3,2013-08-02 15:27:00,
2013-08-02 10:32:00,67.8,59.2,29.98,NNE,31,0.0,0.0,74,0.00,,,0.00,vanprod-2.3,2013-08-02 15:32:00,
2013-08-02 10:37:00,67.9,57.8,29.99,NNE,31,0.0,0.0,70,0.00,,,0.00,vanprod-2.3,2013-08-02 15:37:00,
2013-08-02 10:42:00,68.3,57.3,29.99,NNE,31,0.0,0.0,68,0.00,,,0.00,vanprod-2.3,2013-08-02 15:42:00,
2013-08-02 10:47:00,68.6,57.2,29.99,NNE,31,0.0,0.0,67,0.00,,,0.00,vanprod-2.3,2013-08-02 15:47:00,
2013-08-02 10:52:00,69.1,57.3,29.99,NNE,31,0.0,1.0,66,0.00,,,0.00,vanprod-2.3,2013-08-02 15:52:00,
2013-08-02 10:57:00,69.4,57.1,29.99,NNE,31,0.0,1.0,65,0.00,,,0.00,vanprod-2.3,2013-08-02 15:57:00,
2013-08-02 11:02:00,69.6,56.9,29.99,NNE,31,0.0,1.0,64,0.00,,,0.00,vanprod-2.3,2013-08-02 16:02:00,
2013-08-02 11:07:00,69.6,57.3,29.99,NNE,31,0.0,2.0,65,0.00,,,0.00,vanprod-2.3,2013-08-02 16:07:00,
2013-08-02 11:12:00,69.8,57.5,29.99,NNE,31,0.0,0.0,65,0.00,,,0.00,vanprod-2.3,2013-08-02 16:12:00,
2013-08-02 11:17:00,70.3,57.6,29.99,NNE,31,0.0,1.0,64,0.00,,,0.00,vanprod-2.3,2013-08-02 16:17:00,
2013-08-02 11:22:00,70.3,56.7,29.99,NNE,31,0.0,0.0,62,0.00,,,0.00,vanprod-2.3,2013-08-02 16:22:00,
2013-08-02 11:27:00,70.4,58.9,29.99,NNE,31,0.0,0.0,67,0.00,,,0.00,vanprod-2.3,2013-08-02 16:27:00,
2013-08-02 11:32:00,70.6,58.3,29.99,NNE,31,0.0,2.0,65,0.00,,,0.00,vanprod-2.3,2013-08-02 16:32:00,
2013-08-02 11:33:00,70.6,57.0,29.99,NNE,31,0.0,2.0,62,0.00,,,0.00,vanprod-2.3,2013-08-02 16:33:00,
2013-08-02 11:38:00,70.6,57.4,29.99,NNE,31,0.0,0.0,63,0.00,,,0.00,vanprod-2.3,2013-08-02 16:38:00,
2013-08-02 11:43:00,70.6,57.8,29.99,NNE,31,0.0,1.0,64,0.00,,,0.00,vanprod-2.3,2013-08-02 16:43:00,
2013-08-02 11:47:00,70.8,57.6,30.00,NNE,31,0.0,0.0,63,0.00,,,0.00,vanprod-2.3,2013-08-02 16:47:00,
2013-08-02 11:53:00,71.0,56.4,30.00,NNE,31,1.0,3.0,60,0.00,,,0.00,vanprod-2.3,2013-08-02 16:53:00,
2013-08-02 11:58:00,70.8,55.3,30.00,NNE,31,0.0,1.0,58,0.00,,,0.00,vanprod-2.3,2013-08-02 16:58:00,
2013-08-02 12:02:00,70.8,55.8,30.00,NNE,31,2.0,0.0,59,0.00,,,0.00,vanprod-2.3,2013-08-02 17:02:00,
2013-08-02 12:08:00,71.1,58.8,30.00,NNE,31,0.0,0.0,65,0.00,,,0.00,vanprod-2.3,2013-08-02 17:08:00,
2013-08-02 12:13:00,71.3,57.2,30.00,NNE,31,0.0,2.0,61,0.00,,,0.00,vanprod-2.3,2013-08-02 17:13:00,
2013-08-02 12:17:00,71.5,57.8,30.00,NNE,31,0.0,0.0,62,0.00,,,0.00,vanprod-2.3,2013-08-02 17:17:00,
2013-08-02 12:23:00,71.6,58.4,30.00,NNE,31,0.0,0.0,63,0.00,,,0.00,vanprod-2.3,2013-08-02 17:23:00,
2013-08-02 12:28:00,71.8,59.4,30.00,NNE,31,0.0,0.0,65,0.00,,,0.00,vanprod-2.3,2013-08-02 17:28:00,
2013-08-02 12:33:00,72.0,57.8,30.01,NNE,31,0.0,0.0,61,0.00,,,0.00,vanprod-2.3,2013-08-02 17:33:00,
2013-08-02 12:38:00,72.2,58.0,30.01,NNE,31,0.0,0.0,61,0.00,,,0.00,vanprod-2.3,2013-08-02 17:38:00,
2013-08-02 12:42:00,72.5,58.8,30.01,NNE,31,0.0,0.0,62,0.00,,,0.00,vanprod-2.3,2013-08-02 17:42:00,
2013-08-02 12:48:00,72.8,58.1,30.01,NNE,31,1.0,3.0,60,0.00,,,0.00,vanprod-2.3,2013-08-02 17:48:00,
2013-08-02 12:53:00,72.8,59.9,30.01,NNE,31,1.0,0.0,64,0.00,,,0.00,vanprod-2.3,2013-08-02 17:53:00,
2013-08-02 12:58:00,73.2,59.4,30.01,NNE,31,1.0,0.0,62,0.00,,,0.00,vanprod-2.3,2013-08-02 17:58:00,
2013-08-02 13:03:00,73.5,59.2,30.01,NNE,31,0.0,0.0,61,0.00,,,0.00,vanprod-2.3,2013-08-02 18:03:00,
2013-08-02 13:08:00,73.4,57.3,30.01,NNE,31,3.0,5.0,57,0.00,,,0.00,vanprod-2.3,2013-08-02 18:08:00,
2013-08-02 13:13:00,72.8,57.2,30.01,NNE,31,2.0,2.0,58,0.00,,,0.00,vanprod-2.3,2013-08-02 18:13:00,
2013-08-02 13:18:00,73.0,57.4,30.01,NNE,31,1.0,0.0,58,0.00,,,0.00,vanprod-2.3,2013-08-02 18:18:00,
2013-08-02 13:23:00,73.7,58.0,30.01,NNE,31,1.0,0.0,58,0.00,,,0.00,vanprod-2.3,2013-08-02 18:23:00,
2013-08-02 13:27:00,74.1,58.4,30.01,NNE,31,2.0,3.0,58,0.00,,,0.00,vanprod-2.3,2013-08-02 18:27:00,
2013-08-02 13:32:00,74.2,58.0,30.02,NNE,31,1.0,5.0,57,0.00,,,0.00,vanprod-2.3,2013-08-02 18:32:00,
2013-08-02 13:37:00,73.9,58.7,30.02,NNE,31,1.0,1.0,59,0.00,,,0.00,vanprod-2.3,2013-08-02 18:37:00,
2013-08-02 13:43:00,74.1,59.8,30.02,NNE,31,0.0,0.0,61,0.00,,,0.00,vanprod-2.3,2013-08-02 18:43:00,
2013-08-02 13:47:00,74.6,57.9,30.02,NNE,31,2.0,2.0,56,0.00,,,0.00,vanprod-2.3,2013-08-02 18:47:00,
2013-08-02 13:53:00,74.1,57.9,30.01,NNE,31,1.0,0.0,57,0.00,,,0.00,vanprod-2.3,2013-08-02 18:53:00,
2013-08-02 13:58:00,73.9,58.2,30.01,NNE,31,0.0,0.0,58,0.00,,,0.00,vanprod-2.3,2013-08-02 18:58:00,
2013-08-02 14:03:00,74.1,57.4,30.01,NNE,31,1.0,0.0,56,0.00,,,0.00,vanprod-2.3,2013-08-02 19:03:00,
2013-08-02 14:07:00,74.1,57.9,30.01,NNE,31,0.0,0.0,57,0.00,,,0.00,vanprod-2.3,2013-08-02 19:07:00,
2013-08-02 14:13:00,73.9,57.2,30.01,NNE,31,2.0,2.0,56,0.00,,,0.00,vanprod-2.3,2013-08-02 19:13:00,
2013-08-02 14:17:00,73.5,56.9,30.00,NNE,31,1.0,2.0,56,0.00,,,0.00,vanprod-2.3,2013-08-02 19:17:00,
2013-08-02 14:23:00,73.0,55.9,30.01,NNE,31,0.0,0.0,55,0.00,,,0.00,vanprod-2.3,2013-08-02 19:23:00,
2013-08-02 14:28:00,73.2,57.6,30.01,NNE,31,0.0,0.0,58,0.00,,,0.00,vanprod-2.3,2013-08-02 19:28:00,
2013-08-02 14:33:00,73.0,58.8,30.01,NNE,31,0.0,1.0,61,0.00,,,0.00,vanprod-2.3,2013-08-02 19:33:00,
2013-08-02 14:38:00,73.0,58.3,30.00,NNE,31,0.0,4.0,60,0.00,,,0.00,vanprod-2.3,2013-08-02 19:38:00,
2013-08-02 14:43:00,72.7,58.0,30.01,NNE,31,1.0,0.0,60,0.00,,,0.00,vanprod-2.3,2013-08-02 19:43:00,
2013-08-02 14:48:00,72.7,57.1,30.01,NNE,31,0.0,1.0,58,0.00,,,0.00,vanprod-2.3,2013-08-02 19:48:00,
2013-08-02 14:53:00,72.7,58.0,30.01,NNE,31,0.0,0.0,60,0.00,,,0.00,vanprod-2.3,2013-08-02 19:53:00,
2013-08-02 14:58:00,73.0,60.1,30.01,NNE,31,0.0,0.0,64,0.00,,,0.00,vanprod-2.3,2013-08-02 19:58:00,
2013-08-02 15:03:00,73.2,58.5,30.01,NNE,31,0.0,0.0,60,0.00,,,0.00,vanprod-2.3,2013-08-02 20:03:00,
2013-08-02 15:08:00,73.4,58.7,30.01,NNE,31,0.0,1.0,60,0.00,,,0.00,vanprod-2.3,2013-08-02 20:08:00,
2013-08-02 15:13:00,73.2,59.4,30.01,NNE,31,0.0,0.0,62,0.00,,,0.00,vanprod-2.3,2013-08-02 20:13:00,
2013-08-02 15:18:00,73.0,58.8,30.01,NNE,31,0.0,0.0,61,0.00,,,0.00,vanprod-2.3,2013-08-02 20:18:00,
2013-08-02 15:23:00,72.8,57.7,30.01,NNE,31,0.0,0.0,59,0.00,,,0.00,vanprod-2.3,2013-08-02 20:23:00,
2013-08-02 15:28:00,72.8,58.6,30.01,NNE,31,0.0,0.0,61,0.00,,,0.00,vanprod-2.3,2013-08-02 20:28:00,
2013-08-02 15:33:00,72.8,58.6,30.01,NNE,31,0.0,1.0,61,0.00,,,0.00,vanprod-2.3,2013-08-02 20:33:00,
2013-08-02 15:38:00,72.8,58.1,30.00,NNE,31,0.0,0.0,60,0.00,,,0.00,vanprod-2.3,2013-08-02 20:38:00,
2013-08-02 15:43:00,73.0,57.8,30.00,NNE,31,1.0,5.0,59,0.00,,,0.00,vanprod-2.3,2013-08-02 20:43:00,
2013-08-02 15:48:00,73.2,59.0,30.00,NNE,31,1.0,2.0,61,0.00,,,0.00,vanprod-2.3,2013-08-02 20:48:00,
2013-08-02 15:53:00,73.5,56.9,30.00,NNE,31,2.0,3.0,56,0.00,,,0.00,vanprod-2.3,2013-08-02 20:53:00,
2013-08-02 15:58:00,74.1,58.4,30.00,NNE,31,0.0,0.0,58,0.00,,,0.00,vanprod-2.3,2013-08-02 20:58:00,
2013-08-02 16:03:00,74.4,56.7,30.00,NNE,31,1.0,0.0,54,0.00,,,0.00,vanprod-2.3,2013-08-02 21:03:00,
2013-08-02 16:08:00,74.4,56.7,29.99,NNE,31,0.0,0.0,54,0.00,,,0.00,vanprod-2.3,2013-08-02 21:08:00,
2013-08-02 16:13:00,74.9,56.6,29.99,NNE,31,0.0,0.0,53,0.00,,,0.00,vanprod-2.3,2013-08-02 21:13:00,
2013-08-02 16:18:00,74.9,56.1,29.99,NNE,31,2.0,0.0,52,0.00,,,0.00,vanprod-2.3,2013-08-02 21:18:00,
2013-08-02 16:23:00,74.8,56.0,29.99,NNE,31,2.0,0.0,52,0.00,,,0.00,vanprod-2.3,2013-08-02 21:23:00,
2013-08-02 16:28:00,74.8,54.9,29.99,NNE,31,1.0,0.0,50,0.00,,,0.00,vanprod-2.3,2013-08-02 21:28:00,
2013-08-02 16:33:00,75.1,55.8,29.99,NNE,31,1.0,5.0,51,0.00,,,0.00,vanprod-2.3,2013-08-02 21:33:00,
2013-08-02 16:38:00,75.1,54.1,29.99,NNE,31,2.0,2.0,48,0.00,,,0.00,vanprod-2.3,2013-08-02 21:38:00,
2013-08-02 16:43:00,74.8,54.4,29.99,NNE,31,1.0,3.0,49,0.00,,,0.00,vanprod-2.3,2013-08-02 21:43:00,
2013-08-02 16:48:00,74.9,54.5,29.99,NNE,31,0.0,0.0,49,0.00,,,0.00,vanprod-2.3,2013-08-02 21:48:00,
2013-08-02 16:53:00,75.3,53.7,30.00,NNE,31,0.0,0.0,47,0.00,,,0.00,vanprod-2.3,2013-08-02 21:53:00,
2013-08-02 16:58:00,75.8,52.4,30.00,NNE,31,2.0,5.0,44,0.00,,,0.00,vanprod-2.3,2013-08-02 21:58:00,
2013-08-02 17:03:00,75.8,53.6,30.01,NNE,31,2.0,2.0,46,0.00,,,0.00,vanprod-2.3,2013-08-02 22:03:00,
2013-08-02 17:08:00,76.2,53.3,30.02,NNE,31,0.0,1.0,45,0.00,,,0.00,vanprod-2.3,2013-08-02 22:08:00,
2013-08-02 17:13:00,76.9,54.0,30.02,NNE,31,0.0,1.0,45,0.00,,,0.00,vanprod-2.3,2013-08-02 22:13:00,
2013-08-02 17:18:00,76.0,52.5,30.02,NNE,31,1.0,1.0,44,0.00,,,0.00,vanprod-2.3,2013-08-02 22:18:00,
2013-08-02 17:23:00,75.6,54.0,30.01,NNE,31,1.0,1.0,47,0.00,,,0.00,vanprod-2.3,2013-08-02 22:23:00,
2013-08-02 17:28:00,75.3,52.5,30.01,NE,34,2.0,2.0,45,0.00,,,0.00,vanprod-2.3,2013-08-02 22:28:00,
2013-08-02 17:33:00,74.6,51.9,30.01,NE,34,2.0,4.0,45,0.00,,,0.00,vanprod-2.3,2013-08-02 22:33:00,
2013-08-02 17:38:00,74.1,52.0,30.01,NE,34,1.0,2.0,46,0.00,,,0.00,vanprod-2.3,2013-08-02 22:38:00,
2013-08-02 17:43:00,74.2,52.1,30.01,NE,34,1.0,3.0,46,0.00,,,0.00,vanprod-2.3,2013-08-02 22:43:00,
2013-08-02 17:48:00,74.4,51.7,30.01,NE,34,1.0,2.0,45,0.00,,,0.00,vanprod-2.3,2013-08-02 22:48:00,
2013-08-02 17:53:00,74.6,52.5,30.01,NE,34,2.0,2.0,46,0.00,,,0.00,vanprod-2.3,2013-08-02 22:53:00,
2013-08-02 17:58:00,74.8,51.5,30.01,NE,34,2.0,0.0,44,0.00,,,0.00,vanprod-2.3,2013-08-02 22:58:00,
2013-08-02 18:03:00,74.8,51.5,30.01,NE,34,2.0,2.0,44,0.00,,,0.00,vanprod-2.3,2013-08-02 23:03:00,
2013-08-02 18:08:00,74.9,51.5,30.02,NE,34,1.0,0.0,44,0.00,,,0.00,vanprod-2.3,2013-08-02 23:08:00,
2013-08-02 18:13:00,74.9,52.2,30.01,NE,34,1.0,1.0,45,0.00,,,0.00,vanprod-2.3,2013-08-02 23:13:00,
2013-08-02 18:18:00,75.1,52.3,30.01,NE,34,1.0,2.0,45,0.00,,,0.00,vanprod-2.3,2013-08-02 23:18:00,
2013-08-02 18:23:00,74.9,52.2,30.01,NE,34,0.0,0.0,45,0.00,,,0.00,vanprod-2.3,2013-08-02 23:23:00,
2013-08-02 18:28:00,74.8,52.7,30.01,NE,34,1.0,1.0,46,0.00,,,0.00,vanprod-2.3,2013-08-02 23:28:00,
2013-08-02 18:33:00,74.6,53.6,30.01,NE,34,0.0,0.0,48,0.00,,,0.00,vanprod-2.3,2013-08-02 23:33:00,
2013-08-02 18:38:00,74.4,52.9,30.01,NE,34,1.0,0.0,47,0.00,,,0.00,vanprod-2.3,2013-08-02 23:38:00,
2013-08-02 18:43:00,74.2,52.1,30.01,NE,34,1.0,2.0,46,0.00,,,0.00,vanprod-2.3,2013-08-02 23:43:00,
2013-08-02 18:48:00,74.1,52.6,30.01,NE,34,0.0,0.0,47,0.00,,,0.00,vanprod-2.3,2013-08-02 23:48:00,
2013-08-02 18:53:00,73.9,51.8,30.02,NE,34,1.0,2.0,46,0.00,,,0.00,vanprod-2.3,2013-08-02 23:53:00,
2013-08-02 18:58:00,73.5,50.9,30.02,NE,34,0.0,0.0,45,0.00,,,0.00,vanprod-2.3,2013-08-02 23:58:00,
2013-08-02 19:03:00,73.4,52.0,30.02,NE,34,1.0,5.0,47,0.00,,,0.00,vanprod-2.3,2013-08-03 00:03:00,
2013-08-02 19:08:00,73.0,51.6,30.02,NE,34,0.0,1.0,47,0.00,,,0.00,vanprod-2.3,2013-08-03 00:08:00,
2013-08-02 19:13:00,72.7,51.9,30.02,NE,34,0.0,1.0,48,0.00,,,0.00,vanprod-2.3,2013-08-03 00:13:00,
2013-08-02 19:18:00,72.3,53.2,30.02,NE,34,0.0,0.0,51,0.00,,,0.00,vanprod-2.3,2013-08-03 00:18:00,
2013-08-02 19:23:00,72.2,53.1,30.02,NE,34,0.0,0.0,51,0.00,,,0.00,vanprod-2.3,2013-08-03 00:23:00,
2013-08-02 19:28:00,72.0,52.9,30.02,NE,34,1.0,1.0,51,0.00,,,0.00,vanprod-2.3,2013-08-03 00:28:00,
2013-08-02 19:33:00,72.0,53.4,30.02,NE,34,0.0,0.0,52,0.00,,,0.00,vanprod-2.3,2013-08-03 00:33:00,
2013-08-02 19:38:00,72.0,54.0,30.03,NE,34,0.0,0.0,53,0.00,,,0.00,vanprod-2.3,2013-08-03 00:38:00,
2013-08-02 19:43:00,71.8,53.8,30.03,NE,34,0.0,0.0,53,0.00,,,0.00,vanprod-2.3,2013-08-03 00:43:00,
2013-08-02 19:48:00,71.6,54.1,30.03,NE,34,0.0,0.0,54,0.00,,,0.00,vanprod-2.3,2013-08-03 00:48:00,
2013-08-02 19:53:00,71.5,53.5,30.03,NE,34,0.0,0.0,53,0.00,,,0.00,vanprod-2.3,2013-08-03 00:53:00,
2013-08-02 19:58:00,71.3,53.8,30.03,NE,34,0.0,0.0,54,0.00,,,0.00,vanprod-2.3,2013-08-03 00:58:00,
2013-08-02 20:03:00,71.1,54.1,30.03,NE,34,0.0,0.0,55,0.00,,,0.00,vanprod-2.3,2013-08-03 01:03:00,
2013-08-02 20:08:00,70.8,54.3,30.03,NE,34,0.0,0.0,56,0.00,,,0.00,vanprod-2.3,2013-08-03 01:08:00,
2013-08-02 20:13:00,70.4,54.0,30.03,NE,34,0.0,0.0,56,0.00,,,0.00,vanprod-2.3,2013-08-03 01:13:00,
2013-08-02 20:18:00,70.3,53.9,30.04,NE,34,1.0,0.0,56,0.00,,,0.00,vanprod-2.3,2013-08-03 01:18:00,
2013-08-02 20:23:00,69.9,54.5,30.04,NE,34,0.0,0.0,58,0.00,,,0.00,vanprod-2.3,2013-08-03 01:23:00,
2013-08-02 20:28:00,69.8,54.8,30.04,NE,34,0.0,0.0,59,0.00,,,0.00,vanprod-2.3,2013-08-03 01:28:00,
2013-08-02 20:33:00,69.4,54.9,30.04,NE,34,0.0,0.0,60,0.00,,,0.00,vanprod-2.3,2013-08-03 01:33:00,
2013-08-02 20:38:00,69.1,54.6,30.04,NE,34,0.0,0.0,60,0.00,,,0.00,vanprod-2.3,2013-08-03 01:38:00,
2013-08-02 20:43:00,68.6,55.5,30.04,NE,34,0.0,0.0,63,0.00,,,0.00,vanprod-2.3,2013-08-03 01:43:00,
2013-08-02 20:48:00,68.3,55.2,30.04,NE,34,0.0,0.0,63,0.00,,,0.00,vanprod-2.3,2013-08-03 01:48:00,
2013-08-02 20:53:00,67.9,55.3,30.04,NE,34,0.0,0.0,64,0.00,,,0.00,vanprod-2.3,2013-08-03 01:53:00,
2013-08-02 20:57:00,67.6,55.4,30.05,NE,34,0.0,0.0,65,0.00,,,0.00,vanprod-2.3,2013-08-03 01:57:00,
2013-08-02 21:03:00,67.3,55.1,30.05,NE,34,0.0,0.0,65,0.00,,,0.00,vanprod-2.3,2013-08-03 02:03:00,
2013-08-02 21:08:00,66.9,55.2,30.05,NE,34,0.0,0.0,66,0.00,,,0.00,vanprod-2.3,2013-08-03 02:08:00,
2013-08-02 21:13:00,66.6,55.3,30.05,NE,34,0.0,0.0,67,0.00,,,0.00,vanprod-2.3,2013-08-03 02:13:00,
2013-08-02 21:18:00,66.3,56.2,30.06,NE,34,0.0,0.0,70,0.00,,,0.00,vanprod-2.3,2013-08-03 02:18:00,
2013-08-02 21:23:00,65.8,55.8,30.06,NE,34,0.0,0.0,70,0.00,,,0.00,vanprod-2.3,2013-08-03 02:23:00,
2013-08-02 21:28:00,65.3,55.7,30.06,NE,34,0.0,0.0,71,0.00,,,0.00,vanprod-2.3,2013-08-03 02:28:00,
2013-08-02 21:32:00,65.0,55.4,30.06,NE,34,0.0,0.0,71,0.00,,,0.00,vanprod-2.3,2013-08-03 02:32:00,
2013-08-02 21:38:00,64.7,55.1,30.07,NE,34,0.0,0.0,71,0.00,,,0.00,vanprod-2.3,2013-08-03 02:38:00,
2013-08-02 21:43:00,64.3,55.1,30.07,NE,34,0.0,0.0,72,0.00,,,0.00,vanprod-2.3,2013-08-03 02:43:00,
2013-08-02 21:47:00,64.0,54.8,30.07,NE,34,0.0,0.0,72,0.00,,,0.00,vanprod-2.3,2013-08-03 02:47:00,
2013-08-02 21:53:00,63.7,54.5,30.07,NE,34,0.0,0.0,72,0.00,,,0.00,vanprod-2.3,2013-08-03 02:53:00,
2013-08-02 21:58:00,63.5,54.7,30.07,NE,34,0.0,0.0,73,0.00,,,0.00,vanprod-2.3,2013-08-03 02:58:00,
2013-08-02 22:03:00,63.4,54.6,30.07,NE,34,0.0,0.0,73,0.00,,,0.00,vanprod-2.3,2013-08-03 03:03:00,
2013-08-02 22:07:00,63.0,54.6,30.07,NE,34,0.0,0.0,74,0.00,,,0.00,vanprod-2.3,2013-08-03 03:07:00,
2013-08-02 22:13:00,62.9,54.9,30.07,NE,34,0.0,0.0,75,0.00,,,0.00,vanprod-2.3,2013-08-03 03:13:00,
2013-08-02 22:18:00,62.6,54.9,30.07,NE,34,0.0,0.0,76,0.00,,,0.00,vanprod-2.3,2013-08-03 03:18:00,
2013-08-02 22:22:00,62.4,54.7,30.07,NE,34,0.0,0.0,76,0.00,,,0.00,vanprod-2.3,2013-08-03 03:22:00,
2013-08-02 22:28:00,62.1,54.5,30.07,NE,34,0.0,0.0,76,0.00,,,0.00,vanprod-2.3,2013-08-03 03:28:00,
2013-08-02 22:33:00,61.9,54.3,30.07,NE,34,0.0,0.0,76,0.00,,,0.00,vanprod-2.3,2013-08-03 03:33:00,
2013-08-02 22:38:00,61.6,54.0,30.08,NE,34,0.0,0.0,76,0.00,,,0.00,vanprod-2.3,2013-08-03 03:38:00,
2013-08-02 22:43:00,61.5,53.9,30.08,NE,34,0.0,0.0,76,0.00,,,0.00,vanprod-2.3,2013-08-03 03:43:00,
2013-08-02 22:48:00,61.3,54.0,30.08,NE,34,0.0,0.0,77,0.00,,,0.00,vanprod-2.3,2013-08-03 03:48:00,
2013-08-02 22:53:00,61.1,53.8,30.08,NE,34,0.0,0.0,77,0.00,,,0.00,vanprod-2.3,2013-08-03 03:53:00,
2013-08-02 22:58:00,60.8,53.6,30.08,NE,34,0.0,0.0,77,0.00,,,0.00,vanprod-2.3,2013-08-03 03:58:00,
2013-08-02 23:01:00,60.7,53.8,30.08,NE,34,0.0,0.0,78,0.00,,,0.00,vanprod-2.3,2013-08-03 04:01:00,
2013-08-02 23:06:00,60.4,53.5,30.08,NE,34,0.0,0.0,78,0.00,,,0.00,vanprod-2.3,2013-08-03 04:06:00,
2013-08-02 23:11:00,60.2,53.7,30.08,NE,34,0.0,0.0,79,0.00,,,0.00,vanprod-2.3,2013-08-03 04:11:00,
2013-08-02 23:16:00,60.0,53.5,30.08,NE,34,0.0,0.0,79,0.00,,,0.00,vanprod-2.3,2013-08-03 04:16:00,
2013-08-02 23:21:00,59.9,54.1,30.08,NE,34,0.0,0.0,81,0.00,,,0.00,vanprod-2.3,2013-08-03 04:21:00,
2013-08-02 23:26:00,59.6,54.1,30.08,NE,34,0.0,0.0,82,0.00,,,0.00,vanprod-2.3,2013-08-03 04:26:00,
2013-08-02 23:32:00,59.6,54.4,30.08,NE,34,0.0,0.0,83,0.00,,,0.00,vanprod-2.3,2013-08-03 04:32:00,
2013-08-02 23:37:00,59.3,54.5,30.08,NE,34,0.0,0.0,84,0.00,,,0.00,vanprod-2.3,2013-08-03 04:37:00,
2013-08-02 23:42:00,59.1,54.3,30.08,NE,34,0.0,0.0,84,0.00,,,0.00,vanprod-2.3,2013-08-03 04:42:00,
2013-08-02 23:47:00,58.8,54.3,30.09,NE,34,0.0,0.0,85,0.00,,,0.00,vanprod-2.3,2013-08-03 04:47:00,
2013-08-02 23:52:00,58.7,54.5,30.09,NE,34,0.0,0.0,86,0.00,,,0.00,vanprod-2.3,2013-08-03 04:52:00,
2013-08-02 23:57:00,58.5,54.7,30.09,NE,34,0.0,0.0,87,0.00,,,0.00,vanprod-2.3,2013-08-03 04:57:00,